| time (UTC) | temp C | wind direction | speed KPH | gust KPH | rain 1hr cm | rain 24hr cm | rain mn cm | humidity % | barometer mb |
| 20260503072504 | 22 | 36 | 3.2 | 8.0 | 0.03 | 1.19 | 0.28 | 90 | 1012.4 |
| 20260503072004 | 22 | 20 | 3.2 | 8.0 | 0.10 | 1.19 | 0.28 | 90 | 1012.5 |
| 20260503071504 | 22 | 30 | 1.6 | 8.0 | 0.18 | 1.19 | 0.28 | 90 | 1012.5 |
| 20260503070503 | 22 | 39 | 1.6 | 8.0 | 0.28 | 1.19 | 0.28 | 91 | 1012.8 |
| 20260503055004 | 23 | 246 | 1.6 | 3.2 | 0.00 | 0.91 | 0.00 | 88 | 1013.1 |
| 20260503054504 | 23 | 226 | 0.0 | 4.8 | 0.00 | 0.91 | 0.00 | 88 | 1013.0 |
| 20260503054008 | 23 | 221 | 1.6 | 4.8 | 0.00 | 0.91 | 0.00 | 88 | 1013.1 |
| 20260503053504 | 23 | 223 | 3.2 | 8.0 | 0.00 | 0.91 | 0.00 | 88 | 1013.0 |
| 20260503053004 | 23 | 208 | 3.2 | 8.0 | 0.00 | 0.91 | 0.00 | 88 | 1013.2 |
| 20260503052503 | 23 | 187 | 3.2 | 4.8 | 0.00 | 0.91 | 0.00 | 88 | 1013.4 |
| 20260503052004 | 23 | 205 | 1.6 | 8.0 | 0.00 | 0.91 | 0.00 | 88 | 1013.3 |
| 20260503051503 | 23 | 200 | 0.0 | 0.0 | 0.00 | 0.91 | 0.00 | 88 | 1013.2 |
| 20260503051004 | 23 | 200 | 0.0 | 0.0 | 0.00 | 0.91 | 0.00 | 88 | 1013.3 |
| 20260503050504 | 23 | 200 | 0.0 | 0.0 | 0.00 | 0.91 | 0.00 | 88 | 1013.2 |
| 20260503050005 | 23 | 200 | 0.0 | 1.6 | 0.00 | 0.91 | 0.00 | 88 | 1013.5 |
| 20260503045504 | 23 | 201 | 0.0 | 1.6 | 0.00 | 0.91 | 0.00 | 88 | 1013.5 |
| 20260503045004 | 23 | 172 | 0.0 | 0.0 | 0.00 | 0.91 | 0.00 | 88 | 1013.6 |
| 20260503044504 | 23 | 172 | 0.0 | 0.0 | 0.00 | 0.91 | 0.00 | 88 | 1013.7 |
| 20260503044004 | 23 | 172 | 0.0 | 0.0 | 0.00 | 0.91 | 0.00 | 87 | 1013.6 |
| 20260503043004 | 23 | 172 | 0.0 | 0.0 | 0.00 | 0.91 | 0.00 | 87 | 1013.4 |
| 20260503041503 | 23 | 172 | 0.0 | 3.2 | 0.00 | 0.91 | 0.00 | 87 | 1013.5 |
| 20260503041004 | 23 | 126 | 0.0 | 0.0 | 0.00 | 0.91 | 0.00 | 88 | 1013.5 |
| 20260503040004 | 23 | 132 | 1.6 | 3.2 | 0.00 | 0.91 | 0.00 | 88 | 1013.4 |
| 20260503035504 | 23 | 223 | 0.0 | 1.6 | 0.00 | 0.91 | 0.91 | 88 | 1013.4 |
| 20260503034504 | 23 | 220 | 0.0 | 3.2 | 0.00 | 0.91 | 0.91 | 88 | 1013.2 |
| 20260503034004 | 23 | 210 | 0.0 | 0.0 | 0.00 | 0.91 | 0.91 | 88 | 1013.0 |
| 20260503033504 | 23 | 210 | 0.0 | 3.2 | 0.00 | 0.91 | 0.91 | 87 | 1013.0 |
| 20260503033004 | 23 | 195 | 0.0 | 0.0 | 0.00 | 0.91 | 0.91 | 87 | 1012.9 |
| 20260503032004 | 23 | 171 | 0.0 | 1.6 | 0.00 | 0.91 | 0.91 | 88 | 1012.9 |
| 20260503031504 | 23 | 212 | 0.0 | 1.6 | 0.00 | 0.91 | 0.91 | 87 | 1012.8 |
| 20260503031004 | 23 | 189 | 0.0 | 0.0 | 0.00 | 0.91 | 0.91 | 87 | 1012.7 |
| 20260503030504 | 23 | 189 | 0.0 | 0.0 | 0.00 | 0.91 | 0.91 | 87 | 1012.5 |
| 20260503025004 | 23 | 189 | 0.0 | 0.0 | 0.00 | 0.91 | 0.91 | 87 | 1012.2 |
| 20260503024504 | 23 | 189 | 0.0 | 0.0 | 0.00 | 0.91 | 0.91 | 87 | 1012.4 |
| 20260503024004 | 23 | 189 | 0.0 | 0.0 | 0.00 | 0.91 | 0.91 | 87 | 1012.5 |
| 20260503023504 | 23 | 189 | 0.0 | 0.0 | 0.00 | 0.91 | 0.91 | 87 | 1012.9 |
| 20260503023004 | 23 | 189 | 0.0 | 1.6 | 0.00 | 0.91 | 0.91 | 87 | 1012.8 |
| 20260503022503 | 23 | 219 | 0.0 | 0.0 | 0.00 | 0.91 | 0.91 | 86 | 1012.5 |
| 20260503022004 | 24 | 219 | 0.0 | 0.0 | 0.00 | 0.91 | 0.91 | 86 | 1012.2 |
| 20260503021504 | 24 | 219 | 0.0 | 0.0 | 0.00 | 0.91 | 0.91 | 86 | 1012.2 |
| 20260503021004 | 24 | 219 | 0.0 | 0.0 | 0.00 | 0.91 | 0.91 | 86 | 1012.3 |
| 20260503015504 | 23 | 219 | 0.0 | 0.0 | 0.00 | 0.91 | 0.91 | 86 | 1012.5 |
| 20260503015004 | 23 | 219 | 0.0 | 1.6 | 0.00 | 0.91 | 0.91 | 87 | 1012.5 |
| 20260503014504 | 24 | 203 | 0.0 | 0.0 | 0.00 | 0.91 | 0.91 | 87 | 1012.4 |
| 20260503013503 | 23 | 203 | 0.0 | 1.6 | 0.00 | 0.91 | 0.91 | 87 | 1012.3 |
| 20260503013004 | 23 | 198 | 0.0 | 1.6 | 0.03 | 0.91 | 0.91 | 87 | 1012.3 |
| 20260503012503 | 23 | 147 | 1.6 | 4.8 | 0.03 | 0.91 | 0.91 | 86 | 1012.2 |
| 20260503012004 | 23 | 223 | 3.2 | 4.8 | 0.03 | 0.91 | 0.91 | 86 | 1012.0 |
| 20260503011504 | 23 | 233 | 1.6 | 3.2 | 0.03 | 0.91 | 0.91 | 86 | 1011.6 |
| 20260503011004 | 24 | 47 | 1.6 | 3.2 | 0.03 | 0.91 | 0.91 | 85 | 1010.8 |
| 20260503010004 | 24 | 102 | 0.0 | 0.0 | 0.05 | 0.91 | 0.91 | 85 | 1010.8 |
| 20260503005004 | 24 | 102 | 1.6 | 3.2 | 0.05 | 0.91 | 0.91 | 86 | 1010.8 |
| 20260503004506 | 23 | 192 | 0.0 | 0.0 | 0.05 | 0.91 | 0.91 | 86 | 1011.2 |
| 20260503004004 | 23 | 192 | 0.0 | 0.0 | 0.05 | 0.91 | 0.91 | 86 | 1011.4 |
| 20260503003504 | 23 | 192 | 0.0 | 0.0 | 0.05 | 0.91 | 0.91 | 85 | 1011.2 |
| 20260503003006 | 24 | 192 | 0.0 | 0.0 | 0.03 | 0.89 | 0.89 | 85 | 1010.8 |
| 20260503002504 | 24 | 192 | 0.0 | 1.6 | 0.03 | 0.89 | 0.89 | 85 | 1010.8 |
| 20260503002004 | 24 | 164 | 1.6 | 3.2 | 0.03 | 0.89 | 0.89 | 84 | 1010.6 |
| 20260503001004 | 24 | 51 | 1.6 | 3.2 | 0.03 | 0.89 | 0.89 | 84 | 1010.4 |
| 20260503000504 | 24 | 223 | 0.0 | 3.2 | 0.05 | 0.89 | 0.89 | 84 | 1010.9 |
| 20260503000004 | 24 | 205 | 3.2 | 8.0 | 0.03 | 0.86 | 0.86 | 84 | 1010.9 |
| 20260502235005 | 24 | 254 | 3.2 | 8.0 | 0.03 | 0.86 | 0.86 | 84 | 1010.7 |
| 20260502234504 | 25 | 146 | 1.6 | 3.2 | 0.03 | 0.86 | 0.86 | 83 | 1009.6 |
| 20260502233504 | 25 | 171 | 1.6 | 3.2 | 0.05 | 0.86 | 0.86 | 84 | 1009.7 |
| 20260502233004 | 24 | 291 | 1.6 | 9.7 | 0.05 | 0.86 | 0.86 | 85 | 1010.0 |
| 20260502232005 | 25 | 178 | 0.0 | 1.6 | 0.08 | 0.86 | 0.86 | 84 | 1010.3 |
| 20260502231504 | 25 | 170 | 1.6 | 3.2 | 0.08 | 0.86 | 0.86 | 85 | 1010.4 |
| 20260502231004 | 25 | 202 | 0.0 | 0.0 | 0.10 | 0.86 | 0.86 | 85 | 1010.6 |
| 20260502230504 | 25 | 202 | 0.0 | 0.0 | 0.10 | 0.84 | 0.84 | 85 | 1010.6 |
| 20260502230004 | 25 | 202 | 0.0 | 0.0 | 0.13 | 0.84 | 0.84 | 84 | 1010.4 |
| 20260502225504 | 25 | 202 | 0.0 | 0.0 | 0.15 | 0.84 | 0.84 | 84 | 1010.2 |
| 20260502225004 | 25 | 202 | 0.0 | 0.0 | 0.15 | 0.84 | 0.84 | 84 | 1010.2 |
| 20260502224504 | 25 | 202 | 0.0 | 1.6 | 0.18 | 0.84 | 0.84 | 84 | 1010.4 |
| 20260502224004 | 25 | 150 | 0.0 | 3.2 | 0.15 | 0.81 | 0.81 | 84 | 1010.4 |
| 20260502223504 | 25 | 153 | 1.6 | 3.2 | 0.18 | 0.81 | 0.81 | 85 | 1010.6 |
| 20260502223004 | 25 | 221 | 3.2 | 4.8 | 0.18 | 0.81 | 0.81 | 84 | 1010.5 |
| 20260502222004 | 25 | 147 | 1.6 | 3.2 | 0.15 | 0.79 | 0.79 | 84 | 1010.2 |
| 20260502221504 | 25 | 163 | 1.6 | 1.6 | 0.15 | 0.79 | 0.79 | 84 | 1010.3 |
| 20260502221005 | 25 | 311 | 0.0 | 1.6 | 0.15 | 0.76 | 0.76 | 84 | 1010.2 |
| 20260502220504 | 25 | 86 | 3.2 | 9.7 | 0.33 | 0.74 | 0.74 | 84 | 1010.3 |
| 20260502220004 | 25 | 153 | 3.2 | 4.8 | 0.38 | 0.71 | 0.71 | 84 | 1010.7 |
| 20260502215504 | 25 | 42 | 0.0 | 1.6 | 0.38 | 0.69 | 0.69 | 84 | 1010.1 |
| 20260502215004 | 25 | 254 | 1.6 | 3.2 | 0.43 | 0.69 | 0.69 | 84 | 1010.2 |
| 20260502214503 | 25 | 178 | 1.6 | 3.2 | 0.43 | 0.66 | 0.66 | 84 | 1010.5 |
| 20260502214004 | 25 | 235 | 3.2 | 4.8 | 0.43 | 0.66 | 0.66 | 84 | 1010.3 |
| 20260502213504 | 25 | 38 | 0.0 | 1.6 | 0.41 | 0.64 | 0.64 | 84 | 1009.9 |
| 20260502212504 | 25 | 177 | 0.0 | 4.8 | 0.51 | 0.64 | 0.64 | 85 | 1010.1 |
| 20260502211504 | 24 | 323 | 4.8 | 9.7 | 0.64 | 0.64 | 0.64 | 85 | 1009.7 |
| 20260502211004 | 24 | 14 | 3.2 | 8.0 | 0.61 | 0.61 | 0.61 | 85 | 1009.4 |
| 20260502210504 | 24 | 53 | 1.6 | 3.2 | 0.41 | 0.41 | 0.41 | 84 | 1010.2 |
| 20260502210004 | 25 | 290 | 1.6 | 9.7 | 0.33 | 0.33 | 0.33 | 84 | 1010.5 |
| 20260502205504 | 25 | 337 | 4.8 | 14.5 | 0.30 | 0.30 | 0.30 | 83 | 1010.0 |
| 20260502205004 | 25 | 9 | 1.6 | 8.0 | 0.25 | 0.25 | 0.25 | 82 | 1010.5 |
| 20260502204507 | 25 | 305 | 1.6 | 8.0 | 0.23 | 0.23 | 0.23 | 81 | 1010.1 |
| 20260502204004 | 25 | 326 | 3.2 | 9.7 | 0.23 | 0.23 | 0.23 | 80 | 1009.7 |
| 20260502203004 | 26 | 300 | 3.2 | 4.8 | 0.23 | 0.23 | 0.23 | 76 | 1009.7 |
| 20260502202004 | 28 | 257 | 4.8 | 12.9 | 0.00 | 0.00 | 0.00 | 72 | 1009.5 |
| 20260502201504 | 29 | 183 | 4.8 | 16.1 | 0.00 | 0.00 | 0.00 | 72 | 1009.2 |
| 20260502201004 | 29 | 235 | 6.4 | 12.9 | 0.00 | 0.00 | 0.00 | 72 | 1009.4 |
| 20260502200505 | 29 | 226 | 8.0 | 16.1 | 0.00 | 0.00 | 0.00 | 72 | 1009.4 |
| 20260502200004 | 29 | 221 | 8.0 | 20.9 | 0.00 | 0.00 | 0.00 | 72 | 1009.4 |
| 20260502195504 | 29 | 226 | 11.3 | 16.1 | 0.00 | 0.00 | 0.00 | 72 | 1009.4 |
| 20260502194504 | 28 | 213 | 4.8 | 14.5 | 0.00 | 0.00 | 0.00 | 73 | 1009.2 |
| 20260502194005 | 28 | 211 | 9.7 | 16.1 | 0.00 | 0.00 | 0.00 | 73 | 1009.6 |
| 20260502193004 | 28 | 223 | 11.3 | 19.3 | 0.00 | 0.00 | 0.00 | 72 | 1009.9 |
| 20260502192504 | 28 | 188 | 8.0 | 19.3 | 0.00 | 0.00 | 0.00 | 72 | 1010.1 |
| 20260502191004 | 29 | 228 | 9.7 | 24.1 | 0.00 | 0.00 | 0.00 | 71 | 1010.0 |
| 20260502190504 | 29 | 234 | 6.4 | 22.5 | 0.00 | 0.00 | 0.00 | 70 | 1010.1 |
| 20260502190004 | 29 | 237 | 11.3 | 25.7 | 0.00 | 0.00 | 0.00 | 70 | 1010.1 |
| 20260502185504 | 29 | 226 | 9.7 | 20.9 | 0.00 | 0.00 | 0.00 | 70 | 1010.1 |
| 20260502185004 | 29 | 222 | 12.9 | 22.5 | 0.00 | 0.00 | 0.00 | 70 | 1010.0 |
| 20260502184504 | 29 | 218 | 14.5 | 25.7 | 0.00 | 0.00 | 0.00 | 70 | 1010.2 |
| 20260502183004 | 30 | 227 | 9.7 | 14.5 | 0.00 | 0.00 | 0.00 | 69 | 1010.3 |
| 20260502182504 | 30 | 225 | 8.0 | 22.5 | 0.00 | 0.00 | 0.00 | 68 | 1010.4 |
| 20260502182004 | 30 | 243 | 11.3 | 24.1 | 0.00 | 0.00 | 0.00 | 68 | 1010.3 |
| 20260502181504 | 30 | 245 | 9.7 | 25.7 | 0.00 | 0.00 | 0.00 | 68 | 1010.3 |
| 20260502180504 | 30 | 215 | 12.9 | 24.1 | 0.00 | 0.00 | 0.00 | 67 | 1010.6 |
| 20260502170504 | 30 | 223 | 14.5 | 25.7 | 0.00 | 0.00 | 0.00 | 68 | 1010.8 |
| 20260502164004 | 30 | 231 | 12.9 | 24.1 | 0.00 | 0.00 | 0.00 | 69 | 1011.0 |
| 20260502163504 | 30 | 228 | 12.9 | 27.4 | 0.00 | 0.00 | 0.00 | 70 | 1011.0 |
| 20260502163004 | 30 | 182 | 11.3 | 24.1 | 0.00 | 0.00 | 0.00 | 70 | 1010.9 |
| 20260502162004 | 30 | 219 | 8.0 | 20.9 | 0.00 | 0.00 | 0.00 | 70 | 1011.1 |
| 20260502161504 | 30 | 240 | 8.0 | 20.9 | 0.00 | 0.00 | 0.00 | 69 | 1011.1 |
| 20260502161004 | 30 | 257 | 11.3 | 20.9 | 0.00 | 0.00 | 0.00 | 68 | 1011.1 |
| 20260502160504 | 30 | 238 | 8.0 | 19.3 | 0.00 | 0.00 | 0.00 | 69 | 1011.1 |
| 20260502152004 | 30 | 225 | 11.3 | 24.1 | 0.00 | 0.00 | 0.00 | 68 | 1010.6 |
| 20260502151005 | 30 | 215 | 12.9 | 22.5 | 0.00 | 0.00 | 0.00 | 69 | 1010.8 |
| 20260502150504 | 30 | 194 | 14.5 | 27.4 | 0.00 | 0.00 | 0.00 | 68 | 1010.7 |
| 20260502130504 | 26 | 212 | 9.7 | 19.3 | 0.00 | 0.00 | 0.00 | 84 | 1010.1 |
| 20260502123504 | 24 | 121 | 1.6 | 8.0 | 0.00 | 0.00 | 0.00 | 82 | 1010.2 |
| 20260502122504 | 24 | 140 | 1.6 | 3.2 | 0.00 | 0.00 | 0.00 | 82 | 1010.3 |
| 20260502122004 | 24 | 127 | 1.6 | 3.2 | 0.00 | 0.00 | 0.00 | 82 | 1010.3 |
| 20260502121504 | 23 | 126 | 1.6 | 3.2 | 0.00 | 0.00 | 0.00 | 82 | 1010.3 |
| 20260502121004 | 23 | 42 | 1.6 | 3.2 | 0.00 | 0.00 | 0.00 | 82 | 1010.3 |
| 20260502120504 | 23 | 103 | 0.0 | 1.6 | 0.00 | 0.00 | 0.00 | 83 | 1010.3 |
| 20260502115506 | 23 | 121 | 1.6 | 3.2 | 0.00 | 0.00 | 0.00 | 83 | 1010.2 |
| 20260502115004 | 23 | 132 | 1.6 | 3.2 | 0.00 | 0.00 | 0.00 | 83 | 1010.2 |
| 20260502114504 | 23 | 115 | 1.6 | 3.2 | 0.00 | 0.00 | 0.00 | 83 | 1010.3 |
| 20260502114004 | 23 | 108 | 1.6 | 3.2 | 0.00 | 0.00 | 0.00 | 83 | 1010.2 |
| 20260502113004 | 23 | 108 | 0.0 | 1.6 | 0.00 | 0.00 | 0.00 | 83 | 1010.3 |
| 20260502112504 | 23 | 106 | 0.0 | 1.6 | 0.00 | 0.00 | 0.00 | 84 | 1010.2 |
| 20260502111004 | 22 | 51 | 0.0 | 0.0 | 0.00 | 0.00 | 0.00 | 84 | 1010.2 |
| 20260502110504 | 22 | 51 | 0.0 | 1.6 | 0.00 | 0.00 | 0.00 | 84 | 1010.1 |
| 20260502110004 | 22 | 88 | 0.0 | 3.2 | 0.00 | 0.00 | 0.00 | 84 | 1009.9 |
| 20260502105504 | 22 | 118 | 1.6 | 8.0 | 0.00 | 0.00 | 0.00 | 84 | 1009.9 |
| 20260502105005 | 22 | 133 | 3.2 | 4.8 | 0.00 | 0.00 | 0.00 | 84 | 1009.9 |
| 20260502104004 | 22 | 140 | 1.6 | 4.8 | 0.00 | 0.00 | 0.00 | 84 | 1010.0 |
| 20260502103504 | 22 | 127 | 1.6 | 3.2 | 0.00 | 0.00 | 0.00 | 84 | 1010.0 |
| 20260502102504 | 23 | 117 | 0.0 | 3.2 | 0.00 | 0.00 | 0.00 | 83 | 1010.0 |
| 20260502102004 | 23 | 117 | 0.0 | 1.6 | 0.00 | 0.00 | 0.00 | 83 | 1010.0 |
| 20260502101503 | 23 | 132 | 1.6 | 3.2 | 0.00 | 0.00 | 0.00 | 83 | 1010.2 |
| 20260502101005 | 23 | 119 | 0.0 | 1.6 | 0.00 | 0.00 | 0.00 | 83 | 1010.3 |
| 20260502100505 | 23 | 109 | 0.0 | 1.6 | 0.00 | 0.00 | 0.00 | 83 | 1010.4 |
| 20260502091504 | 23 | 198 | 0.0 | 0.0 | 0.00 | 0.00 | 0.00 | 82 | 1010.6 |
| 20260502091004 | 23 | 198 | 0.0 | 0.0 | 0.00 | 0.00 | 0.00 | 82 | 1010.4 |
| 20260502090504 | 23 | 198 | 0.0 | 0.0 | 0.00 | 0.00 | 0.00 | 82 | 1010.5 |